Location: Unspecified
(47.1630°N, 0.0000°E)
Time: 02:34:20
(UTC+00:00)

SPOT 3 Rocket - Visible Passes

Search period start: 04 April 2026 00:00
Search period end: 14 April 2026 00:00
Orbit: 775 x 789 km, 98.5° (Epoch: 29 March)

Date Brightness Start Highest point End Pass type
(mag) Time Alt. Az. Time Alt. Az. Time Alt. Az.
4 Apr 5.3 19:46:48 14° E 19:48:52 17° ENE 19:52:04 10° NNE visible
4 Apr 3.4 21:27:22 82° SW 21:27:32 84° WSW 21:32:46 10° NNW visible
4 Apr 6.1 23:07:55 12° W 23:07:55 12° W 23:09:34 10° WNW visible
5 Apr 3.7 20:55:02 50° E 20:55:45 54° ENE 21:00:50 10° N visible
5 Apr 5.4 22:35:35 23° W 22:35:35 23° W 22:39:29 10° NW visible
6 Apr 4.5 20:22:43 26° E 20:24:07 30° ENE 20:28:37 10° N visible
6 Apr 4.4 22:03:16 42° W 22:03:18 42° W 22:08:14 10° NNW visible
7 Apr 5.2 19:50:23 14° E 19:52:38 18° ENE 19:56:01 10° NNE visible
7 Apr 3.5 21:30:56 72° SSW 21:31:22 78° WSW 21:36:35 10° NNW visible
7 Apr 6.1 23:11:29 11° W 23:11:32 11° W 23:12:49 10° WNW visible
8 Apr 5.7 19:20:48 10° ENE 19:21:18 10° NE 19:21:47 10° NE visible
8 Apr 3.7 20:58:36 50° ESE 20:59:33 58° ENE 21:04:40 10° N visible
8 Apr 5.4 22:39:09 21° W 22:39:15 21° W 22:43:10 10° NW visible
9 Apr 4.5 20:26:17 27° E 20:27:54 32° ENE 20:32:29 10° N visible
9 Apr 4.5 22:06:50 38° WSW 22:07:08 39° W 22:11:59 10° NNW visible
10 Apr 5.1 19:53:57 14° E 19:56:23 19° ENE 19:59:57 10° NNE visible
10 Apr 3.6 21:34:30 64° SSW 21:35:10 72° WSW 21:40:23 10° NNW visible
11 Apr 5.6 19:23:44 10° ENE 19:25:02 11° NE 19:26:20 10° NE visible
11 Apr 3.6 21:02:11 49° ESE 21:03:21 62° ENE 21:08:30 10° N visible
11 Apr 5.5 22:42:43 19° W 22:43:06 20° W 22:46:50 10° NW visible
12 Apr 4.4 20:29:52 27° ESE 20:31:41 35° ENE 20:36:20 10° N visible
12 Apr 4.6 22:10:24 35° WSW 22:10:58 36° W 22:15:45 10° NNW visible
13 Apr 5.1 19:57:32 14° E 20:00:08 20° ENE 20:03:52 10° NNE visible
13 Apr 3.7 21:38:05 56° SSW 21:38:59 67° WSW 21:44:10 10° NNW visible
